Regional Weather Roundup
Issued by NWS Kansas City/Pleasant Hill, MO

Home | Current Version | Previous Version | Text Only | Print | Product List | Glossary On
Versions: 1 2 3 4 5 6 7 8 9 10 11 12 13 14 15 16 17 18 19 20 21 22 23 24 25 26 27
000
ASUS43 KEAX 241610
RWREAX

WEATHER ROUNDUP FOR EASTERN KANSAS AND NORTHWEST MISSOURI
NATIONAL WEATHER SERVICE KANSAS CITY/PLEASANT HILL MO
1100 AM CDT MON JUL 24 2017

KSZ040-057-103>105-MOZ028-029-037-043-241700-
...KANSAS CITY METROPOLITAN AREA...

CITY           SKY/WX    TMP DP  RH WIND       PRES   REMARKS
K.C. INTL      PTSUNNY   79  65  62 E5        30.03S
K.C. DOWNTOWN  MOSUNNY   80  67  64 E7        30.01F
LEES SUMMIT    MOSUNNY   79  67  66 E8        30.03S
OLATHE - IXD   SUNNY     82  67  60 E9        30.02F
OLATHE - OJC   SUNNY     79  68  69 E8        30.02F
LAWRENCE       SUNNY     81  69  67 E7        30.01S

$$

MOZ001>008-011>017-020>025-030>033-038>040-044>046-053-054-241700-
...NORTHERN AND CENTRAL MISSOURI...

CITY           SKY/WX    TMP DP  RH WIND       PRES   REMARKS
ST. JOSEPH     SUNNY     80  67  64 E6        30.02F
MOSBY          SUNNY     79  63  57 E3        30.02F
WHITEMAN AFB   SUNNY     81  69  65 E5        30.00S
CLINTON        MOSUNNY   82  70  65 NE6       30.00S
SEDALIA        SUNNY     83  70  64 NE9       30.02S
WARSAW         NOT AVBL
CHILLICOTHE      N/A     79  64  60 N5        30.03F
KIRKSVILLE     MOSUNNY   78  62  57 NE9       30.04S

$$

MOZ041-047>049-056>058-063>065-088>090-097-241700-
...EASTERN AND SOUTHERN MISSOURI...

CITY           SKY/WX    TMP DP  RH WIND       PRES   REMARKS
ST. LOUIS INTL MOSUNNY   85  65  51 N6        29.98S
SPIRIT OF STL  SUNNY     84  66  54 NW6       29.96S
COLUMBIA       MOSUNNY   81  65  58 NE6       30.01S
JEFFERSON CITY MOSUNNY   83  66  56 N8        29.98F
ROLLA          SUNNY     82  69  64 NE6       29.99S
OSAGE BEACH    SUNNY     83  70  64 NW5       30.00S
SPRINGFIELD    SUNNY     88  72  58 N6        30.00F HX  94
BRANSON        MOSUNNY   86  72  62 N5        30.03R HX  92
JOPLIN         SUNNY     88  74  63 CALM      30.00F HX  96
WEST PLAINS    SUNNY     89  65  44 NE5       30.01S HX  91

$$

IAZ060-094-KSZ022-034>040-054-083-096-NEZ052-066-093-241700-
...KANSAS...SOUTHEAST NEBRASKA AND IOWA...

CITY           SKY/WX    TMP DP  RH WIND       PRES   REMARKS
TOPEKA         SUNNY     82  69  64 E9        30.01S
MANHATTAN      SUNNY     84  69  60 E9        30.00S
EMPORIA        SUNNY     85  71  63 VRB5      30.00F HX  90
CHANUTE        SUNNY     88  72  58 CALM      30.00R HX  94
WICHITA        SUNNY     89  69  51 CALM      29.99S HX  93
OMAHA          MOSUNNY   77  61  57 SE6       30.03F
LINCOLN        SUNNY     79  64  60 SE8       30.03F
FALLS CITY     SUNNY     78  66  66 SE6       30.02F
LAMONI         SUNNY     77  63  61 E3        30.05S
DES MOINES     MOSUNNY   77  59  53 N7        30.03F

$$





USA.gov is the U.S. government's official web portal to all federal, state and local government web resources and services.